Location: Luxembourg
(49.6117°N, 6.1300°E)
Time: 05:30:28
(UTC+01:00)

BlueWalker 3 - Pass Details

Date: 13 October 2024
Orbit: 470 x 482 km, 53.2° (Epoch: 04 November)

Event Time Altitude Azimuth Distance (km) Brightness Sun altitude
Exits shadow 06:32:26 22° 295° (WNW) 1,064 3.1 -14.0°
Maximum altitude 06:34:26 46° 359° (N) 645 2.5 -13.7°
Drops below altitude 10° 06:38:00 10° 73° (ENE) 1,636 5.9 -13.1°
Sets 06:40:13 0° 80° (E) 2,515 7.5 -12.8°
